Terminal Aerodrome Forecast
Issued by NWS Charleston, WV

Current Version | Previous Version | Graphics & Text | Print | Product List | Glossary On
Versions: 1 2 3 4 5 6 7 8 9 10 11 12 13 14 15 16 17 18 19 20 21 22 23 24 25 26
000
FTUS41 KRLX 211400 AAA
TAFHTS
TAF AMD
KHTS 211452Z 2115/2212 20004KT P6SM SCT035 BKN050
     FM211630 23004KT 6SM -SHRA BR VCTS BKN035CB
     FM220200 00000KT P6SM VCTS BKN040CB
     FM220400 00000KT P6SM BKN040
     FM220500 00000KT 6SM BR BKN040
     FM220900 00000KT 3SM BR BKN040=

USA.gov is the U.S. government's official web portal to all federal, state and local government web resources and services.